Torna al catalogo

STARLINK-36958

AttivoComunicazioniSSO
NORAD 68163·PAYLOAD·🇺🇸 United States

Lanciato Mar 13, 2026 da Vandenberg Space Force Base

Loading…

Prossimi Passaggi (prossime 24 ore)

TLE

AggiornatoSource: CelesTrak SupGP

Epoca: Sep 14, 2026, 21:30 UTC

1 68163C 26049X   26257.89631944  .00035568  00000+0  11044-2 0  2576
2 68163  97.2840 277.8584 0001206  96.5507  34.6883 15.33414326    13

Traccia STARLINK-36958 in tempo reale con AllMySat

Download on the App Store